User: anonymous   Login
Location: Shades State Park
(39.9310°N, 87.0690°W)
Time: 06:44:58
(UTC-04:00)
Language:

H-2A R/B - Orbit

View from above orbital plane
View from above orbital plane
View from above satellite
View from above satellite

Ground track
Ground track

The orbit data is extracted from the following two-line orbital elements,

1 27601U 02056E   17142.83535207 +.00000030 +00000-0 +26190-4 0  9992
2 27601 098.3777 211.5050 0072333 011.7049 099.0941 14.31779645754187
Epoch (UTC): 22 May 2017 20:02:54
Eccentricity: 0.0072333
inclination: 98.3777°
perigee height: 734 km
apogee height: 837 km
right ascension of ascending node: 211.5050°
argument of perigee: 11.7049°
revolutions per day: 14.31779645
mean anomaly at epoch: 99.0941°
orbit number at epoch: 75418

The dashed part of the orbit path shows where the satellite is in the earth's shadow,  

DLR